Mosinee, WI

3:10 AM CST on January 23, 2018 (GMT -0600)
Central Wisconsin

Weather History for KCWA - July, 2013

Change the Weather History Date:

Wednesday, July 17, 2013

  Actual Average Record
Temperature  
Mean Temperature 79 °F -  
Max Temperature 89 °F 76 °F 95 °F (2006)
Min Temperature 69 °F 56 °F 48 °F (2014)
Cooling Degree Days 14    
Growing Degree Days 29 (Base 50)    
Moisture  
Dew Point 71 °F    
Average Humidity 84    
Maximum Humidity 100    
Minimum Humidity 46    
Precipitation  
Precipitation 0.00 in - - ()
Sea Level Pressure  
Sea Level Pressure 30.25 in    
Wind  
Wind Speed 6 mph (SW)    
Max Wind Speed 13 mph    
Max Gust Speed 17 mph    
Visibility 9 miles    
Events      
Averages and records for this station are not official NWS values.
T = Trace of Precipitation, MM = Missing Value Source: NWS Daily Summary

Daily Weather History Graph

Daily Weather History Graph

Search for Another Location

Airport or City:

Trip Planner

Search our weather history database for the weather conditions in past years. The results will help you decide how hot, cold, wet, or windy it might be!

Date:

Astronomy

Jul. 17, 2013 Rise Set
Actual Time 5:29 AM CDT 8:40 PM CDT
Civil Twilight 4:53 AM CDT 9:15 PM CDT
Nautical Twilight 4:07 AM CDT 10:00 PM CDT
Astronomical Twilight 3:11 AM CDT 10:56 PM CDT
Moon 3:25 PM CDT (7/17) 12:41 AM CDT (7/17)
Length of Visible Light 16h 21m
Length of Day
15h 10m
Waxing Gibbous, 67% of the Moon is Illuminated
Jul 17
Waxing Gibbous
Jul 22
Full
Jul 29
Last Quarter
Aug 6
New
Aug 14
First Quarter

Hourly Weather History & Observations

Time (CDT) Temp. Heat Index Dew Point Humidity Pressure Visibility Wind Dir Wind Speed Gust Speed Precip Events Conditions
12:15 AM 73.4 °F - 71.6 °F 94% 30.27 in 10.0 mi SW 5.8 mph - N/A   Clear
12:35 AM 73.4 °F - 71.6 °F 94% 30.28 in 10.0 mi SSW 4.6 mph - N/A   Clear
12:55 AM 73.4 °F - 71.6 °F 94% 30.28 in 10.0 mi SW 5.8 mph - N/A   Clear
1:15 AM 73.4 °F - 71.6 °F 94% 30.28 in 10.0 mi SW 5.8 mph - N/A   Clear
1:35 AM 73.4 °F - 71.6 °F 94% 30.27 in 10.0 mi SW 5.8 mph - N/A   Clear
1:55 AM 73.4 °F - 71.6 °F 94% 30.27 in 10.0 mi SW 4.6 mph - N/A   Clear
2:15 AM 71.6 °F - 71.6 °F 100% 30.27 in 10.0 mi SW 5.8 mph - N/A   Clear
2:35 AM 71.6 °F - 71.6 °F 100% 30.27 in 10.0 mi SW 4.6 mph - N/A   Clear
2:55 AM 71.6 °F - 69.8 °F 94% 30.27 in 7.0 mi SW 3.5 mph - N/A   Clear
3:15 AM 71.6 °F - 71.6 °F 100% 30.28 in 7.0 mi Calm Calm - N/A   Clear
3:35 AM 69.8 °F - 69.8 °F 100% 30.28 in 10.0 mi SW 4.6 mph - N/A   Clear
3:55 AM 69.8 °F - 69.8 °F 100% 30.28 in 7.0 mi SW 3.5 mph - N/A   Clear
4:15 AM 69.8 °F - 69.8 °F 100% 30.27 in 7.0 mi SW 4.6 mph - N/A   Clear
4:35 AM 71.6 °F - 71.6 °F 100% 30.28 in 7.0 mi SW 6.9 mph - N/A   Clear
4:55 AM 71.6 °F - 71.6 °F 100% 30.28 in 7.0 mi SW 5.8 mph - N/A   Clear
5:15 AM 71.6 °F - 71.6 °F 100% 30.28 in 7.0 mi SW 4.6 mph - N/A   Clear
5:35 AM 71.6 °F - 71.6 °F 100% 30.28 in 7.0 mi WSW 4.6 mph - N/A   Clear
5:45 AM 71.6 °F - 71.6 °F 100% 30.29 in 7.0 mi SW 4.6 mph - N/A   Clear
6:45 AM 73.4 °F - 73.4 °F 100% 30.29 in 7.0 mi WSW 3.5 mph - N/A   Clear
7:45 AM 77.0 °F - 73.4 °F 89% 30.30 in 10.0 mi West 6.9 mph - N/A   Clear
8:45 AM 80.6 °F 85.4 °F 73.4 °F 79% 30.30 in 10.0 mi West 6.9 mph - N/A   Clear
9:50 AM 84.2 °F 90.9 °F 73.4 °F 70% 30.30 in 10.0 mi SW 4.6 mph - N/A   Clear
10:45 AM 87.8 °F 93.8 °F 71.6 °F 58% 30.29 in 10.0 mi West 6.9 mph - N/A   Scattered Clouds
11:45 AM 87.8 °F 92.6 °F 69.8 °F 55% 30.29 in 10.0 mi West 8.1 mph - N/A   Scattered Clouds
12:45 PM 89.6 °F 94.7 °F 69.8 °F 52% 30.28 in 10.0 mi WSW 10.4 mph 17.3 mph N/A   Scattered Clouds
1:45 PM 87.8 °F - - N/A% 30.27 in 10.0 mi WSW 8.1 mph - N/A   Scattered Clouds
2:45 PM 87.8 °F 90.4 °F 66.2 °F 49% 30.25 in 10.0 mi West 12.7 mph - N/A   Scattered Clouds
3:45 PM 89.6 °F 92.2 °F 66.2 °F 46% 30.23 in 10.0 mi West 10.4 mph - N/A   Scattered Clouds
4:45 PM 89.6 °F 93.4 °F 68.0 °F 49% 30.23 in 10.0 mi WSW 10.4 mph - N/A   Partly Cloudy
5:45 PM 87.8 °F 91.4 °F 68.0 °F 52% 30.21 in 10.0 mi WSW 9.2 mph - N/A   Scattered Clouds
6:45 PM 86.0 °F 90.4 °F 69.8 °F 58% 30.19 in 10.0 mi WSW 8.1 mph - N/A   Partly Cloudy
7:45 PM 82.4 °F 87.2 °F 71.6 °F 70% 30.19 in 10.0 mi WSW 5.8 mph - N/A   Clear
8:45 PM 82.4 °F 87.2 °F 71.6 °F 70% 30.19 in 10.0 mi WSW 4.6 mph - N/A   Clear
9:45 PM 77.0 °F - 71.6 °F 83% 30.19 in 10.0 mi SW 3.5 mph - N/A   Clear
10:35 PM 75.2 °F - 69.8 °F 83% 30.19 in 10.0 mi SW 4.6 mph - N/A   Clear
10:55 PM 73.4 °F - 69.8 °F 88% 30.19 in 10.0 mi SW 4.6 mph - N/A   Clear
11:15 PM 73.4 °F - 71.6 °F 94% 30.19 in 7.0 mi SSW 3.5 mph - N/A   Clear
11:35 PM 73.4 °F - 71.6 °F 94% 30.18 in 7.0 mi SW 4.6 mph - N/A   Clear
11:55 PM 73.4 °F - 69.8 °F 88% 30.18 in 7.0 mi SW 4.6 mph - N/A   Clear